#timestamp,LO_Frequency,Hit,StdDev 
1603215635.1,286047064.5,P
1603215655.8,286047066.0,P
1603215675.7,286047065.3,P
1603215695.5,286047065.3,Y
1603215715.4,286047002.2,P
1603215735.2,286047000.8,N
1603215755.0,286046999.1,N
1603215755.9,286046999.1,N
1603215775.8,286046998.2,N
1603215795.6,286047000.9,N
1603215815.4,286047000.5,N
1603215835.3,286047002.3,N
1603215855.1,286047002.6,N
1603215875.9,286047003.4,N
1603215895.7,286047004.6,N
1603215915.5,286047007.8,N
1603215935.4,286047008.3,N
1603215955.2,286047008.7,N
1603215975.0,286047008.0,N
1603215976.0,286047008.0,N
1603215995.8,286047008.2,N
1603216015.6,286047009.2,N
1603216035.5,286047006.5,N
1603216055.3,286047010.2,N
1603216075.1,286047010.9,N
1603216095.9,286047013.9,N
1603216115.7,286047012.8,N
1603216135.6,286047012.5,N
1603216155.4,286047013.2,N
1603216175.2,286047012.5,N
1603216195.1,286047013.2,N
1603216196.0,286047013.2,N
1603216215.8,286047015.1,N
1603216235.6,286047012.6,N
1603216255.5,286047013.2,N
1603216275.3,286047012.7,N
1603216295.2,286047014.6,N
1603216315.9,286047012.9,N
1603216335.7,286047014.5,Y
1603216355.6,286047007.2,P
1603216375.4,286047008.4,P
1603216395.2,286047010.2,P
1603216415.1,286047008.9,Y
1603216416.0,286047008.9,P
1603216435.8,286047000.9,P
1603216455.7,286047000.5,N
1603216475.5,286047001.8,N
1603216495.3,286047002.5,N
1603216515.2,286047002.3,N
1603216535.0,286046999.8,N
1603216535.9,286046999.8,N
1603216555.8,286047002.3,N
1603216575.6,286047002.8,N
1603216595.4,286047001.4,N
1603216615.3,286047002.7,N
1603216635.1,286047000.4,N
1603216655.8,286046998.3,N
1603216675.7,286047001.2,N
1603216695.5,286046998.4,N
1603216715.4,286046998.5,N
1603216735.2,286046998.6,N
1603216755.0,286047001.0,N
1603216755.9,286047001.0,N
1603216775.8,286047002.8,N
1603216795.6,286046998.2,N
